SCP
4 4 3 2 2 2 1 2 2 1 1 1 1 1 1 1 1 1 1 0 0 0 0 0 0 0 1 1 1 1 1 1 1 1 1 1 1 1 1 1 0 0 0
4 4 3 2 2 2 2 2 3 2 1 1 1 1 1 1 1 1 1 1 1 1 1 1 1 1 1 1 1 1 1 1 1 1 1 1 1 1 1 1 1 0 0
4 3 3 2 2 2 2 2 2 2 1 1 1 1 1 1 1 1 1 1 1 1 1 1 1 1 1 1 1 1 2 1 1 1 1 1 1 1 1 1 1 1 0
3 3 3 2 2 3 3 2 2 2 2 2 2 2 1 1 1 1 1 1 1 1 1 1 1 1 1 1 1 2 2 2 1 1 1 1 1 0 0 1 1 1 0
2 2 2 2 2 3 3 2 2 2 2 2 2 2 2 1 1 1 1 1 1 1 1 1 1 1 1 2 2 2 2 2 2 1 1 1 1 1 0 0 0 0 0
2 2 2 2 2 2 2 2 2 2 2 2 2 2 2 1 1 1 1 1 1 1 1 1 1 1 1 2 2 2 2 1 1 1 1 1 1 1 1 1 0 0 0
1 1 1 2 2 2 2 2 2 2 2 2 2 1 1 1 1 1 1 1 1 1 1 1 1 1 1 2 2 1 1 1 1 1 1 1 1 1 1 1 0 0 0
1 1 1 1 1 1 2 2 2 2 2 2 1 1 1 1 1 1 1 1 1 1 1 1 1 1 1 2 2 1 1 1 1 1 1 1 1 1 1 1 1 1 0
1 1 1 1 1 1 1 2 2 2 2 2 2 1 1 1 1 0 0 1 1 1 1 1 1 1 1 2 1 1 1 1 1 1 1 1 1 1 1 1 1 1 1
0 0 0 0 1 1 1 2 2 2 2 2 2 2 1 1 1 0 0 0 0 0 0 0 0 1 1 1 1 1 1 1 1 1 1 1 1 1 1 1 1 1 1
0 0 0 0 0 1 1 1 2 2 2 2 2 2 1 1 1 1 1 0 0 0 0 0 0 1 1 1 1 1 1 1 1 1 1 1 1 1 1 1 1 1 1
0 0 0 0 0 0 1 1 1 1 2 2 1 1 1 1 1 1 1 1 0 0 0 0 0 1 1 1 1 1 1 1 0 0 0 0 0 0 1 1 1 1 1
0 0 0 0 0 0 0 1 1 1 1 1 1 1 1 1 1 1 1 1 0 0 0 0 0 0 1 1 1 0 0 0 0 0 0 0 0 0 0 0 1 1 1
0 0 0 0 0 0 0 0 1 1 1 1 1 1 1 1 1 1 1 0 0 0 0 0 0 0 0 0 0 0 0 0 0 0 0 0 0 0 0 0 0 0 0
0 0 0 0 0 0 0 0 0 0 1 1 1 1 1 1 0 0 0 0 0 0 0 0 0 0 0 0 0 0 0 0 0 0 0 0 0 0 0 0 0 0 0
0 0 0 0 0 0 0 0 0 0 0 0 0 0 0 0 0 0 0 0 0 0 0 0 0 0 0 0 0 0 0 0 0 0 0 0 0 0 0 0 0 0 0
0 0 0 0 0 0 0 0 0 0 0 0 0 0 0 0 0 0 0 0 0 0 0 0 0 0 0 0 0 0 0 0 0 0 0 0 0 0 0 0 0 0 0
0 0 0 0 0 0 0 0 0 0 0 0 0 0 0 0 0 0 0 0 0 0 0 0 0 0 0 0 0 0 0 0 0 0 0 0 0 0 0 0 0 0 0
0 0 0 0 0 0 0 0 0 0 0 0 0 0 0 0 0 0 0 0 0 0 0 0 0 0 0 0 0 0 0 0 0 0 0 0 0 0 0 0 0 0 0
0 0 0 0 0 0 0 0 0 0 0 0 0 0 0 0 0 0 0 0 0 0 0 0 0 0 0 0 0 0 0 0 0 0 0 0 0 0 0 0 0 0 0
0 0 0 0 0 0 0 0 0 0 0 0 0 0 0 0 0 0 0 0 0 0 0 0 0 0 0 0 0 0 0 0 0 0 0 0 0 0 0 0 0 0 0
0 0 0 0 0 0 0 0 0 0 0 0 0 0 0 0 0 0 0 0 0 0 0 0 0 0 0 0 0 0 0 0 0 0 0 0 0 0 0 0 0 0 0
0 0 0 0 0 0 0 0 0 0 0 0 0 0 0 0 0 0 0 0 0 0 0 0 0 0 0 0 0 0 0 0 0 0 0 0 0 0 0 0 0 0 0
0 0 0 0 0 0 0 0 0 0 0 0 0 0 0 0 0 0 0 0 0 0 0 0 0 0 0 0 0 0 0 0 0 0 0 0 0 0 0 0 0 0 0
0 0 0 0 0 0 0 0 0 0 0 0 0 0 0 0 0 0 0 0 0 0 0 0 0 0 0 0 0 0 0 0 0 0 0 0 0 0 0 0 0 0 0
0 0 0 0 0 0 0 0 0 0 0 0 0 0 0 0 0 0 0 0 0 0 0 0 0 0 0 0 0 0 0 0 0 0 0 0 0 0 0 0 0 0 0
Wind_Speed
6 6 6 6 6 6 6 7 7 8 9 9 9 10 10 10 9 9 7 15 17 16 17 17 17 17 16 15 16 16 17 19 19 18 19 20 20 20 20 19 19 18 17
8 7 7 7 7 7 7 7 9 8 7 7 8 9 10 9 9 10 9 11 16 17 17 18 18 18 17 16 16 16 16 17 18 18 19 19 19 19 19 19 19 19 18
8 8 7 7 7 7 8 8 9 7 7 6 8 9 8 9 9 10 10 8 9 13 16 17 18 19 18 18 18 18 17 17 17 18 19 19 19 19 18 17 17 17 17
10 8 7 8 8 7 7 7 7 7 7 7 7 7 7 7 10 10 9 9 8 8 11 15 17 18 19 19 19 19 18 18 18 19 19 20 20 19 18 18 17 17 17
7 6 6 7 7 6 6 7 7 6 7 8 7 7 6 7 8 9 10 11 10 10 9 11 15 16 19 21 20 19 18 18 18 19 20 21 22 20 19 19 18 17 17
5 4 5 7 6 5 6 6 8 7 7 6 7 7 6 7 7 8 10 9 10 11 11 10 9 10 16 18 19 19 20 19 18 19 20 22 22 21 20 19 19 18 18
5 4 4 5 5 5 7 7 7 8 7 4 3 5 6 8 9 9 9 9 10 11 10 10 8 8 7 13 15 18 20 20 18 18 19 20 21 21 20 19 19 19 19
5 5 5 5 5 5 7 7 7 4 4 5 4 3 4 3 5 7 7 7 8 7 8 9 9 9 8 7 9 14 15 17 17 17 18 19 19 19 20 20 19 19 19
4 5 6 6 7 6 6 7 7 8 6 6 6 5 4 5 3 2 4 4 5 5 5 6 8 9 9 7 6 8 11 9 9 10 11 14 16 17 18 20 20 20 19
5 6 6 7 7 7 8 8 8 7 8 6 6 7 7 4 4 3 2 2 3 4 4 4 5 5 5 4 3 3 4 3 2 3 4 6 9 12 15 18 21 21 20
7 7 7 7 8 7 9 9 9 9 8 8 6 5 7 6 7 5 4 2 2 2 2 3 3 3 2 1 2 3 4 5 6 6 5 4 2 3 8 14 18 20 21
5 7 8 7 8 8 9 9 9 10 9 10 8 6 6 5 6 6 8 5 3 1 2 3 3 1 1 2 3 7 8 8 8 8 7 7 7 6 3 1 7 14 19
5 7 7 7 7 8 9 8 9 9 10 10 9 8 7 6 4 5 5 4 2 1 1 3 3 3 3 3 4 8 9 8 8 7 7 7 8 8 8 7 6 3 4
5 7 9 8 9 9 8 7 6 8 7 8 9 9 7 6 5 5 5 4 3 2 2 1 2 4 4 4 6 8 7 9 8 7 6 7 7 8 8 8 8 8 8
5 7 9 9 9 8 7 6 5 6 6 6 7 8 6 5 5 5 4 4 5 4 2 1 2 4 4 5 6 6 6 9 9 7 7 7 8 8 8 8 9 8 8
5 7 8 9 9 8 7 6 5 4 4 4 4 6 6 4 5 4 4 3 3 4 4 2 2 2 3 6 8 7 7 10 11 9 9 9 10 10 10 10 10 10 9
5 6 7 8 8 7 7 5 4 3 2 2 2 4 5 5 4 4 3 3 2 4 6 3 2 2 4 6 6 6 7 7 8 13 12 12 12 11 11 11 12 12 12
4 4 6 6 7 7 7 6 5 3 2 1 1 2 4 5 6 4 4 4 4 4 7 6 3 3 5 5 5 6 6 7 7 12 12 12 12 12 11 11 11 11 11
4 3 4 5 6 6 6 6 5 5 5 5 5 5 5 6 6 5 5 6 6 6 5 7 4 3 5 4 5 5 6 5 5 7 8 9 10 10 10 10 10 11 10
3 3 2 3 3 4 4 5 6 6 7 8 7 6 6 5 6 6 6 7 8 8 7 8 6 4 4 4 4 4 4 4 5 5 6 6 7 8 9 10 11 11 11
5 3 1 1 2 2 3 4 5 7 7 8 8 7 5 7 7 6 7 7 9 8 8 8 6 5 4 4 3 2 3 2 4 4 3 4 4 5 6 8 10 11 10
5 4 2 1 2 2 5 6 6 6 6 7 6 6 7 9 13 13 12 10 9 9 8 6 6 6 4 3 2 2 3 3 3 4 3 4 4 5 5 6 9 11 11
6 5 5 4 4 5 7 6 6 5 5 4 4 5 6 7 9 10 12 13 11 9 8 7 8 5 4 2 3 3 3 3 2 4 3 3 4 4 4 5 10 11 12
6 6 6 6 6 7 10 8 6 5 5 5 4 5 6 5 5 8 9 9 8 7 5 5 6 4 3 2 2 2 3 3 2 3 4 3 3 2 2 3 8 11 12
7 6 7 8 8 8 12 11 9 5 5 6 5 4 5 5 7 11 11 10 10 8 10 12 11 9 8 6 3 3 3 3 3 3 4 3 3 2 2 2 5 10 11
8 8 8 8 9 9 13 14 11 6 6 5 4 4 5 6 7 9 10 11 11 7 7 8 9 9 8 10 9 5 3 3 2 2 4 3 3 2 2 2 3 5 7
Wind_Direction
237 239 240 239 241 242 245 251 251 250 250 250 247 245 249 249 251 250 254 260 264 263 261 259 260 262 262 255 246 239 233 230 227 225 225 225 226 226 226 225 222 220 219
235 236 239 240 241 239 240 245 250 251 251 249 251 248 248 247 248 249 249 258 262 262 259 258 260 259 258 254 249 244 238 234 230 227 227 228 228 229 229 227 224 222 221
240 242 240 241 240 240 242 244 246 243 247 248 253 253 252 248 246 248 250 253 260 261 258 257 258 257 254 251 247 244 242 237 231 228 228 229 230 230 228 225 223 221 219
247 248 249 249 246 242 241 245 245 240 240 237 243 247 245 247 248 249 250 253 256 261 261 257 255 255 254 252 251 248 245 241 235 230 228 229 231 230 228 225 223 220 217
260 248 253 260 259 253 245 244 243 234 239 238 238 242 243 246 249 252 251 252 252 254 257 259 256 253 255 256 254 253 250 245 240 235 231 230 231 230 227 224 223 222 218
277 268 261 266 267 262 256 246 245 237 237 237 243 248 245 245 246 246 250 252 252 253 254 254 256 254 253 255 254 254 253 249 242 239 236 232 230 228 226 223 220 220 218
292 286 275 274 265 255 254 250 246 244 241 220 226 259 257 245 245 246 245 247 251 253 255 255 254 253 252 248 252 254 253 250 242 240 240 236 231 227 224 222 219 217 217
301 300 287 282 274 262 257 252 240 237 233 195 200 226 271 280 244 240 241 244 251 257 261 262 257 252 247 244 245 249 254 252 248 244 242 240 234 226 222 220 218 217 217
300 294 290 286 281 270 261 252 239 233 236 217 202 201 213 234 275 269 247 245 251 257 265 271 266 260 250 238 238 243 254 256 254 252 249 244 235 226 220 219 217 217 217
311 305 297 292 285 276 267 260 249 236 232 230 215 216 220 202 217 271 273 254 251 253 266 274 274 269 248 227 216 220 246 255 280 295 283 261 241 230 223 221 219 217 217
312 308 303 298 292 283 273 266 258 244 233 231 219 209 220 222 218 230 257 256 266 268 293 301 289 274 245 161 143 123 98 82 72 61 47 34 5 243 227 226 226 222 219
304 303 308 301 294 287 278 269 260 250 240 236 230 213 202 203 206 214 230 240 248 288 343 356 342 334 56 90 109 106 94 83 72 65 59 56 56 55 50 268 242 234 228
307 310 313 307 301 291 282 272 262 254 244 238 233 224 218 214 188 188 208 216 204 153 26 15 7 30 58 59 67 75 74 73 70 67 64 62 60 58 53 46 35 9 266
293 301 309 309 306 302 295 279 267 260 249 242 235 225 219 216 202 192 185 176 170 145 83 33 11 35 56 59 61 62 60 60 64 68 74 75 72 66 60 54 48 42 39
291 306 312 314 313 310 306 296 277 268 254 243 235 224 216 209 200 197 191 181 171 159 144 109 63 30 55 68 62 65 60 56 56 64 80 82 79 70 60 53 47 43 40
292 312 319 320 321 324 322 310 292 276 258 247 226 212 206 194 186 183 180 172 164 143 130 103 79 51 68 82 71 70 64 56 53 68 82 83 80 70 58 50 44 37 31
296 312 318 321 326 333 339 332 318 302 277 273 233 206 194 171 158 145 127 118 121 124 119 103 70 63 80 83 72 67 62 60 60 65 77 82 79 72 63 57 51 44 37
286 304 317 323 332 339 346 349 348 351 360 35 61 126 134 129 118 110 106 104 101 107 124 121 82 66 71 75 76 65 55 56 58 63 71 76 78 76 70 64 58 50 43
275 303 322 330 335 345 359 11 22 33 46 51 56 72 85 99 95 94 105 110 108 101 101 111 98 71 72 57 68 60 52 43 46 52 61 65 69 73 69 60 52 46 40
247 280 306 324 340 3 29 39 49 55 58 53 50 53 62 83 100 108 113 118 115 108 105 105 99 83 72 54 66 64 62 42 39 30 38 44 53 65 61 52 42 35 27
223 230 257 346 17 47 69 76 70 70 71 67 56 53 65 96 110 117 125 123 120 115 110 107 101 91 75 67 67 60 74 57 54 30 26 39 42 52 48 40 33 25 17
209 198 187 153 106 109 117 108 99 86 81 83 78 67 76 88 95 93 96 100 114 123 121 113 108 104 96 85 81 76 78 62 40 10 14 32 36 49 42 40 29 28 21
196 188 179 168 160 160 154 140 112 99 97 99 102 95 89 84 90 93 82 76 74 91 115 124 120 122 124 137 126 109 98 86 64 353 354 28 24 41 33 36 32 32 26
194 187 180 177 174 182 175 157 123 100 91 82 86 104 110 100 102 108 97 83 72 65 85 97 112 115 118 144 151 129 127 105 73 37 13 28 7 9 358 22 24 26 22
196 188 178 177 180 184 181 162 139 119 101 81 69 80 112 111 123 120 110 103 92 81 78 84 87 85 79 75 111 115 105 99 65 22 16 15 357 335 324 354 7 12 12
205 191 180 182 183 179 176 163 148 135 120 106 82 69 85 111 123 125 121 119 113 111 108 91 73 60 62 58 57 69 105 108 96 45 13 358 360 351 355 346 346 4 7